Location: Songkhla
(7.2000°N, 100.6000°E)
Time: 21:07:31
(UTC+07:00)

BLOCK DM-SL R/B - Pass Details

Date: 16 April 2026
Orbit: 911 x 35743 km, 1.5° (Epoch: 20 May)

Event Time Altitude Azimuth Distance (km) Brightness Sun altitude
Rises 18:31:55 0° 263° (W) 4,897 8.9 -2.3°
Reaches altitude 10° 18:35:38 10° 257° (WSW) 3,109 7.5 -3.2°
Maximum altitude 18:41:10 50° 180° (S) 1,135 3.9 -4.5°
Drops below altitude 10° 18:46:42 10° 103° (ESE) 3,111 5.4 -5.9°
Enters shadow 18:47:43 - 101° (ESE) 3,593 5.7 -6.1°
